Location: C.E.K. Mees Observatory
(42.7003°N, 77.4088°W)
Time: 05:55:53
(UTC-04:00)

ISS - Pass Details

Date: 09 October 2017
Orbit: 401 x 408 km, 51.6° (Epoch: 23 October)

Event Time Altitude Azimuth Distance (km) Brightness Sun altitude
Rises 20:33:21 0° 305° (NW) 2,327 1.2 -22.2°
Reaches altitude 10° 20:35:29 10° 312° (NW) 1,466 -0.2 -22.5°
Enters shadow 20:37:36 33° 334° (NNW) 710 -2.3 -22.9°
